IRIDIUM 54 [P]

Last updated on April 28, 2019, 3:05 a.m. UTC

1 25171U 98010C   19117.90134704  .01686802 -15101-5  93533-3 0  9992
2 25171  86.4034  65.3758 0369485 150.3321 211.9474 15.50683951109536

Satellite is not in orbit.